This demonstration page uses our WeatherBlox Daily Observations layout. Learn more.

Left ArrowRight Arrow

39.08367, -84.50855

Hourly Observations for November 11, 2018

Temp ( °F °C ) Dew Point ( °F °C ) Humidity (%) Winds ( mph kmh ) Pressure ( in mb ) Visibility ( mi km ) Precip ( " mm )
12:53 am 00:53 Clear 23 -5 22 -5.6 96 96 ENE 3 6 30.43 1030 9 14 0.00 0.00
1:53 am 01:53 Clear 23 -5 21 -6.1 92 92 NE 3 6 30.43 1030 7 11 0.00 0.00
2:53 am 02:53 Clear 23 -5 22 -5.6 96 96 Calm 30.43 1031 8 13 0.00 0.00
3:53 am 03:53 Clear 22 -5.6 20 -6.7 92 92 NNE 3 6 30.44 1031 8 13 0.00 0.00
4:53 am 04:53 Clear 22 -5.6 21 -6.1 96 96 Calm 30.42 1030 7 11 0.00 0.00
5:53 am 05:53 Clear with Mist and Fog 21 -6.1 20 -6.7 96 96 NE 3 6 30.42 1030 6 10 0.00 0.00
6:53 am 06:53 Clear 21 -6.1 19 -7.2 92 92 Calm 30.44 1031 10 16 0.00 0.00
7:53 am 07:53 Sunny 22 -5.6 21 -6.1 96 96 N 5 7 30.44 1031 10 16 0.00 0.00
8:53 am 08:53 Sunny 27 -2.8 24 -4.4 89 89 NNE 3 6 30.42 1030 9 14 0.00 0.00
9:53 am 09:53 Sunny 32 0 25 -3.9 75 75 SSW 8 13 30.44 1031 10 16 0.00 0.00
10:53 am 10:53 Mostly Cloudy 35 1.7 23 -5 61 61 S 3 6 30.42 1030 10 16 0.00 0.00
11:53 am 11:53 Partly Cloudy 39 3.9 22 -5.6 50 50 S 9 15 30.38 1029 10 16 0.00 0.00
12:53 pm 12:53 Partly Cloudy 42 5.6 22 -5.6 45 45 VRB 6 9 30.36 1028 10 16 0.00 0.00
1:53 pm 13:53 Partly Cloudy 44 6.7 22 -5.6 41 41 SSE 8 13 30.32 1027 10 16 0.00 0.00
2:53 pm 14:53 Partly Cloudy 45 7.2 20 -6.7 37 37 WSW 3 6 30.31 1027 10 16 0.00 0.00
3:53 pm 15:53 Sunny 45 7.2 21 -6.1 39 39 SSE 5 7 30.31 1026 10 16 0.00 0.00
4:53 pm 16:53 Partly Cloudy 42 5.6 22 -5.6 45 45 SE 3 6 30.30 1026 10 16 0.00 0.00
5:53 pm 17:53 Mostly Cloudy 39 3.9 28 -2.2 65 65 Calm 30.30 1026 10 16 0.00 0.00
6:53 pm 18:53 Clear 38 3.3 26 -3.3 62 62 Calm 30.31 1027 10 16 0.00 0.00
7:53 pm 19:53 Clear 34 1.1 28 -2.2 79 79 Calm 30.32 1027 10 16 0.00 0.00
8:53 pm 20:53 Clear 32 0 27 -2.8 82 82 Calm 30.32 1027 10 16 0.00 0.00
9:53 pm 21:53 Clear 30 -1.1 27 -2.8 88 88 Calm 30.32 1027 10 16 0.00 0.00
10:53 pm 22:53 Clear 31 -0.6 28 -2.2 89 89 Calm 30.33 1027 10 16 0.00 0.00
11:53 pm 23:53 Mostly Cloudy 31 -0.6 28 -2.2 89 89 Calm 30.32 1027 10 16 0.00 0.00

Powered by AerisWeather